Location: Ammerl�gen
(47.2167°N, 9.6000°E)
Time: 20:29:28
(UTC+00:00)

ISS - Pass Details

Date: 06 October 2021
Orbit: 417 x 423 km, 51.6° (Epoch: 19 October)

Event Time Altitude Azimuth Distance (km) Brightness Sun altitude
Rises 17:34:02 0° 291° (WNW) 2,365 1.6 -8.1°
Reaches altitude 10° 17:36:17 10° 280° (W) 1,498 0.7 -8.5°
Maximum altitude 17:39:15 29° 218° (SW) 797 -1.9 -9.0°
Drops below altitude 10° 17:42:12 10° 156° (SSE) 1,492 -1.2 -9.5°
Enters shadow 17:43:56 - 147° (SSE) 2,152 -0.5 -9.8°
